Location: Komorniki-Jastrz?b
(50.6749°N, 19.1921°E)
Time: 23:00:21
(UTC+00:00)

Daily predictions for brighter satellites

Satellite Brightness Start Highest point End
(mag) Time Altitude Azimuth Time Altitude Azimuth Time Altitude Azimuth
BREEZE-M DEB (TANK) 2.3 15:08:10 10° WSW 15:10:32 71° S 15:15:58 10° E
Meteor 1-27 4.4 15:09:14 10° S 15:14:58 65° E 15:20:41 10° NNE
ARIANE 5 R/B 3.1 15:13:00 10° SE 15:17:30 33° ENE 15:22:05 10° N
Lacrosse 4 Rocket 1.7 15:14:37 10° SW 15:18:39 63° NW 15:22:39 10° NNE
CZ-2D R/B 4.2 15:17:46 10° ESE 15:20:01 18° ENE 15:22:17 10° NNE
Cosmos 2208 Rocket 4.0 15:16:11 10° NNW 15:21:19 60° ENE 15:26:26 10° SE
Cosmos 1733 2.5 15:20:07 10° NNE 15:21:24 19° ENE 15:22:41 10° SE
Cosmos 1758 Rocket 3.8 15:17:14 10° N 15:21:25 45° ENE 15:25:31 10° SSE
Cosmos 1315 Rocket 2.7 15:20:08 10° S 15:23:57 81° E 15:27:48 10° NNE
Iridium 51 3.7 15:22:15 10° S 15:25:20 60° E 15:28:30 10° N
Cosmos 2098 Rocket 3.8 15:21:41 10° SSE 15:25:22 33° E 15:29:38 10° NNE
Cosmos 2151 3.6 15:23:52 10° N 15:27:38 32° ENE 15:31:23 10° SE
SL-08 ROCKET BODY 4.5 15:22:29 10° N 15:28:21 58° ENE 15:34:15 10° SSE
NOSS 3-2 (A) 3.3 15:25:37 10° SSW 15:30:33 62° SE 15:36:32 10° NE
NOSS 3-2 (C) 4.2 15:26:41 10° S 15:30:53 27° ESE 15:35:37 10° ENE
SL-16 R/B 2.6 15:24:50 10° NNE 15:31:06 70° ESE 15:37:16 10° S
Cosmos 1743 2.9 15:28:37 10° N 15:31:40 35° ENE 15:34:39 10° SE
Cosmos 2263 Rocket 3.2 15:30:01 10° NNW 15:34:40 25° NE 15:39:20 10° E
CBERS-1 4.1 15:31:53 10° SSE 15:37:00 89° WSW 15:42:09 10° NNW
CORIOLIS 4.1 15:34:01 10° SSE 15:39:17 64° ENE 15:44:35 10° N
GEOS 3 Rocket 3.9 15:38:35 10° NE 15:43:54 58° SE 15:49:11 10° SSW
IGS 5A 3.4 15:40:48 10° SSE 15:44:45 84° WSW 15:48:45 10° NNW
Cosmos 1626 Rocket 3.5 15:40:27 10° N 15:44:49 88° ENE 15:49:07 10° S
MOS 1 Rocket 3.9 15:41:14 10° SE 15:45:48 40° ENE 15:50:37 10° N
Cosmos 2084 4.3 15:41:56 10° WSW 15:45:54 40° NW 15:49:40 11° NE
Cosmos 2227 Rocket 2.6 15:42:22 10° NNW 15:47:44 42° NE 15:53:04 10° ESE
Cosmos 2360 4.5 15:44:28 10° S 15:49:58 52° ESE 15:55:24 11° NE
AQUARIUS 4.4 15:46:11 10° SE 15:50:20 42° ENE 15:54:30 10° N
NOSS 2-2 (D) 2.7 15:48:29 10° SW 15:51:46 71° SE 15:53:55 18° NE
Cosmos 2369 Rocket 3.9 15:47:51 10° W 15:52:32 26° NW 15:57:16 10° NNE
Cosmos 1900 4.4 15:48:01 10° NW 15:53:03 59° NE 15:57:57 10° SE
Cosmos 1933 4.3 15:50:17 10° SE 15:53:27 25° E 15:55:44 15° NE
Cosmos 2084 Rocket 3.3 15:49:20 10° NW 15:53:32 66° NE 15:57:43 10° SE
Thor Agena Rocket 3.6 15:48:20 10° SSE 15:53:34 88° WSW 15:58:45 10° NNW
Cosmos 1606 Rocket 4.5 15:51:15 10° SSE 15:54:57 27° E 15:58:22 12° NNE
Cosmos 724 4.3 15:48:55 10° NW 15:55:02 88° NE 16:00:57 10° SE
SJ-12 3.8 15:51:49 10° SE 15:55:28 50° ENE 15:59:09 10° N
BlueWalker 3 3.6 15:53:49 10° W 15:57:05 32° SW 16:00:20 10° SSE
Cosmos 1356 Rocket 4.4 15:55:13 10° SSW 15:59:08 46° WNW 16:03:06 10° N
Meteor 1-28 Rocket 3.0 15:55:53 10° N 15:59:15 76° WNW 16:02:34 10° SSW
Cosmos 1503 Rocket 4.4 15:56:40 10° S 16:01:37 44° ESE 16:05:54 13° NE
COSMO-SKYMED 1 4.2 16:02:54 14° E 16:02:54 14° E 16:04:34 10° SE
CZ-2D R/B 4.3 15:58:49 10° ESE 16:02:22 27° ENE 16:05:54 10° N
Cosmos 1544 Rocket 3.6 15:59:30 10° S 16:03:53 88° W 16:08:21 10° N
Cosmos 1484 Rocket 4.2 16:00:51 10° SSW 16:04:07 36° W 16:07:25 10° NNW
IRS-1C 4.0 15:59:22 10° SSE 16:04:41 76° ENE 16:10:01 10° NNW
Cosmos 1697 Rocket 3.4 16:00:35 10° S 16:05:33 34° ESE 16:09:00 18° NE
Cosmos 1241 Rocket 4.5 15:59:39 10° SW 16:06:03 86° SE 16:11:34 14° NE
NOSS 2-2 (E) 2.6 16:03:09 10° SW 16:06:26 79° SE 16:08:05 25° NE
BREEZE M DEB (TANK) 4.3 15:54:04 10° WNW 16:07:57 58° SSW 16:11:52 10° SE
Cosmos 405 Rocket 4.2 16:06:10 10° NNW 16:09:08 32° W 16:12:04 10° SSW
IRIDIUM 104 4.2 16:04:42 10° N 16:09:57 73° E 16:15:10 10° S
Okean 1-7 Rocket 3.5 16:07:09 10° N 16:11:32 63° ENE 16:15:52 10° SSE
Lacrosse 5 rocket 1.8 16:11:00 10° W 16:14:33 41° NNW 16:16:22 23° NE
Cosmos 1655 Rocket 4.2 16:08:47 10° N 16:14:48 46° ENE 16:20:45 10° SE
Spot 4 Rocket 4.4 16:11:13 10° SE 16:15:53 38° ENE 16:20:36 10° N
Cosmos 1461 3.1 16:14:50 10° SSW 16:18:33 46° ESE 16:20:09 29° ENE
SJ-6F 4.2 16:14:53 10° SSE 16:18:49 67° ENE 16:22:50 10° N
IRIDIUM 114 4.3 16:13:50 10° N 16:19:06 86° E 16:24:20 10° S
Gbstr 26 Del rocket 4.1 16:16:06 10° SSW 16:19:23 24° SE 16:20:36 21° ESE
CENTAUR R/B 3.3 16:13:35 10° WSW 16:19:24 47° NNW 16:25:22 15° NE
Cosmos 1726 Rocket 4.2 16:15:57 10° SSE 16:20:11 37° E 16:22:51 20° NE
Meteor 1-20 Rocket 4.1 16:15:06 10° NNW 16:20:36 88° W 16:26:04 10° S
Cosmos 1777 Rocket 3.9 16:15:31 10° SSW 16:20:45 72° ESE 16:25:09 15° NNE
Cosmos 1602 Rocket 3.8 16:18:48 10° NNW 16:23:12 71° W 16:27:31 10° S
SKYMED 2 4.2 16:22:23 25° NE 16:24:07 35° E 16:28:06 10° SSE
Cosmos 2279 Rocket 4.4 16:18:32 10° SSW 16:24:41 65° WNW 16:30:55 10° N
IRIDIUM 103 4.4 16:23:01 10° N 16:28:16 80° W 16:33:29 10° S
SMAP 4.0 16:25:48 10° S 16:30:20 51° W 16:34:54 10° NNW
USA 238 DEB 4.4 16:26:00 10° SSE 16:30:59 27° ESE 16:32:29 25° E
USA 238 4.5 16:26:07 10° SSE 16:31:06 27° ESE 16:32:34 24° E
UNK 4.0 16:27:28 10° N 16:32:03 67° WNW 16:36:34 10° SSW
Cosmos 1656 4.0 16:27:25 10° SW 16:33:00 65° WNW 16:37:55 14° NNE
Cosmos 2082 4.4 16:28:24 10° NNW 16:33:34 34° NE 16:35:10 29° ENE
YAOGAN 1 2.8 16:30:00 10° SE 16:34:03 44° ENE 16:38:07 10° N
Landsat 7 4.4 16:31:12 10° S 16:35:48 58° W 16:40:25 10° NNW
SAR-Lupe-4 4.5 16:32:38 10° S 16:36:06 50° W 16:39:35 10° NNW
NOSS 2-2 (C) 4.4 16:34:33 10° W 16:37:08 24° NNW 16:38:06 21° N
Cosmos 1867 3.7 16:31:41 10° NW 16:37:10 78° SW 16:42:36 10° SSE
Cosmos 1486 Rocket 4.2 16:32:40 10° SSW 16:37:52 69° WNW 16:42:24 14° NNE
USA 215 3.5 16:35:28 26° ENE 16:39:05 54° N 16:45:26 10° WNW
NOSS 7 (H) 4.3 16:37:03 10° NW 16:39:56 67° SW 16:41:18 29° SSE
USA 290 4.4 16:37:40 10° NW 16:40:33 29° WSW 16:43:24 10° SSW
Cosmos 2297 Rocket 3.3 16:35:15 10° NW 16:40:38 46° WSW 16:46:00 10° S
Resurs 01 Rocket 3.8 16:47:36 12° N 16:47:36 12° N 16:47:57 10° N
SJ-7 4.3 16:44:58 49° NE 16:44:58 49° NE 16:48:17 10° N
Cosmos 1953 Rocket 3.5 16:41:44 10° N 16:46:09 62° ENE 16:50:33 10° SSE
ATLAS CENTAUR R/B 3.9 16:45:47 10° WNW 16:47:44 15° WSW 16:49:39 10° SSW
Aureole 1 Rocket 4.3 16:44:07 10° SSE 16:46:49 27° SE 16:46:49 27° SE
CZ-4C R/B 3.4 16:42:22 10° NW 16:49:14 66° SW 16:57:45 10° SSE
USA 81 4.0 16:50:59 10° N 16:56:13 62° E 17:01:26 10° SSE
ARIANE 5 R/B 3.8 16:51:40 10° S 16:56:26 42° W 17:01:18 10° NNW
Cosmos 1825 Rocket 3.9 16:52:38 10° NNW 16:56:58 63° W 17:01:13 10° S
Lacrosse 4 Rocket 3.7 16:55:00 10° WNW 16:57:16 14° NNW 16:59:05 11° N
Cosmos 990 Rocket 3.8 16:52:35 10° SSW 16:57:42 75° ESE 16:59:48 36° NNE
Cosmos 2219 3.3 16:52:09 10° NNW 16:57:47 54° NE 16:59:37 39° ESE
NOSS 2-3 (E) 4.0 16:56:40 10° SSW 16:59:21 37° SSE 16:59:21 37° SSE
NOAA 6 3.9 16:55:58 10° SSE 17:00:58 60° ENE 17:06:01 10° N
NOSS 2-3 (D) 4.1 16:58:39 10° SSW 17:01:12 34° SSE 17:01:12 34° SSE
Meteor 1-5 Rocket 4.2 16:58:05 10° NNW 17:03:26 79° W 17:08:52 10° S
SPOT 1/Viking Rocket 3.8 17:01:05 10° S 17:06:16 70° WSW 17:11:29 10° NNW
OceanSat 1 rocket 4.4 17:02:17 10° SSE 17:07:01 73° ENE 17:11:44 10° NNW
Cosmos 1980 Rocket 2.4 17:02:33 10° S 17:07:56 47° ESE 17:08:01 47° ESE
Nadezhda 2 Rocket 4.4 17:03:18 10° N 17:09:23 58° ENE 17:15:22 10° SSE
Cosmos 1844 Rocket 3.9 17:07:31 10° NNW 17:10:59 26° NNE 17:10:59 26° NNE
SL-16 R/B 4.3 17:09:02 10° N 17:14:12 28° NW 17:19:18 10° WSW
Cosmos 2058 Rocket 3.9 17:11:54 10° S 17:14:42 37° SSE 17:14:42 37° SSE
Cosmos 2263 Rocket 2.2 17:13:34 10° NNW 17:19:16 83° WSW 17:23:09 21° SSE
NOSS 3-2 (C) 3.4 17:15:54 10° WSW 17:21:04 66° NW 17:23:02 42° NNE
NOSS 3-2 (A) 4.3 17:16:35 10° W 17:21:40 40° NNW 17:24:05 29° NNE
Cosmos 1553 Rocket 3.9 17:16:02 10° SSE 17:22:02 56° E 17:22:05 56° E
Meteor 2-11 Rocket 4.4 17:20:03 10° N 17:25:47 57° ENE 17:25:47 57° ENE
Cosmos 1076 Rocket 4.4 17:22:06 10° NNW 17:26:16 49° W 17:30:25 10° SSW
Cosmos 2227 Rocket 3.4 17:26:30 10° NW 17:31:47 42° WSW 17:37:02 10° S
Cosmos 1538 Rocket 4.3 17:27:32 10° NNW 17:32:46 66° WSW 17:36:28 20° S
PSLV R/B 4.2 17:36:04 49° WSW 17:36:19 50° W 17:40:17 10° NNW
COSMO-SKYMED 1 3.5 17:39:14 40° SW 17:39:14 40° SW 17:42:00 10° SSW
Meteor 2-2 Rocket 4.1 17:35:25 10° S 17:40:35 75° SSE 17:40:35 75° SSE
BREEZE-M DEB (TANK) 4.5 17:41:17 10° W 17:45:29 66° SSW 17:48:33 42° SE
Cosmos 1697 Rocket 3.4 17:43:54 10° SW 17:49:20 49° NW 17:50:44 40° N
Lacrosse 5 rocket 3.7 17:48:55 10° WNW 17:49:58 16° NW 17:49:58 16° NW
BREEZE-M DEB (TANK) 4.5 17:50:14 10° WNW 17:54:38 90° NNE 17:57:03 55° ESE
CENTAUR R/B 4.0 18:05:49 10° WNW 18:11:50 31° N 18:12:28 31° N
USA 281 4.3 18:17:15 32° N 18:17:15 32° N 18:20:45 10° NNW
Cosmos 2082 4.4 18:12:22 10° NW 18:17:03 50° WNW 18:17:03 50° WNW
USA 238 DEB 3.9 18:14:58 10° SW 18:19:57 60° WSW 18:19:57 60° WSW
USA 238 3.9 18:15:05 10° SW 18:20:02 59° WSW 18:20:02 59° WSW
USA 215 3.4 18:22:49 67° NW 18:22:49 67° NW 18:28:25 10° WNW
Cosmos 1980 Rocket 4.0 18:46:47 10° WSW 18:49:48 27° W 18:49:48 27° W
